カタログに戻る

STARLINK-36217

運用中通信VLEO
NORAD 67120·PAYLOAD·🇺🇸 United States

打ち上げ Dec 15, 2025 から Cape Canaveral Space Force Station

Loading…

次のパス (今後24時間)

TLE

最新Source: CelesTrak SupGP

元期: Sep 15, 2026, 03:56 UTC

1 67120C 25299U   26258.16437500  .00011549  00000+0  41840-3 0  2589
2 67120  43.0012 179.2525 0001329 280.7324 319.1153 15.27565901    15

AllMySatでSTARLINK-36217をリアルタイム追跡

Download on the App Store